Flag for U.S.A. Weather past 2 weeks in Jackson, Mississippi, U.S.A.

Now
84 °F

Partly sunny.


Feels Like: 88 °F
Forecast: 69 / 86 °F
Wind: 14 mph from Southeast

Location: Hawkins Field

Current Time: May 24, 2015 at 1:00:47 PM

Latest Report: May 24, 2015 at 11:53 AM


Visibility: 10 mi

Pressure: 30.06 "Hg

Humidity: 63%

Dew point: 70 °F

Location of JacksonLocation

Historic Weather in Jackson — Graph

°F

Jackson temperature yesterday

Maximum temperature yesterday: 85 °F (at 3:53 PM)
Minimum temperature yesterday: 61 °F (at 3:53 AM)
Average temperature yesterday: 75 °F

Past Weeks' High & Low Weather Summary

 TemperatureHumidityPressure
High88 °F (May 10, 1:53 PM)97% (May 18, 2:53 AM)30.24 "Hg (May 18, 2:53 AM)
Low52 °F (May 22, 5:53 AM)42% (May 9, 4:53 PM)29.91 "Hg (May 20, 6:53 PM)
Average73 °F75%30.09 "Hg
* Reported May 9 11:53 AM — May 24 11:53 AM, Jackson, Weather by CustomWeather, © 2015

Note: Actual official high and low records may vary slightly from our data, if they occured in-between our weather recording intervals... More about our weather records

Advertising

Jackson weather history for previous 24 hours

 ConditionsComfort  
Time TempWeatherWind HumidityBarometerVisibility
11:53 AM
Sun, May 24
84 °FPartly sunny.14 mph63%30.06 "Hg10 mi
10:53 AM82 °FBroken clouds.13 mph67%30.07 "Hg10 mi
9:53 AM80 °FBroken clouds.13 mph74%30.09 "Hg10 mi
9:00 AM76 °FOvercast.13 mph85%30.12 "Hg9 mi
7:53 AM72 °FFog.12 mph91%30.09 "Hg6 mi
7:00 AM70 °FFog.9 mph93%30.11 "Hg5 mi
5:53 AM69 °FClear.8 mph93%30.07 "Hg10 mi
4:53 AM70 °FClear.6 mph87%30.09 "Hg10 mi
3:53 AM70 °FClear.9 mph87%30.09 "Hg10 mi
2:53 AM71 °FClear.6 mph81%30.09 "Hg10 mi
1:53 AM71 °FClear.6 mph81%30.10 "Hg10 mi
12:53 AM73 °FClear.8 mph76%30.10 "Hg10 mi
11:53 PM
Sat, May 23
73 °FClear.6 mph79%30.11 "Hg10 mi
10:53 PM76 °FClear.9 mph72%30.11 "Hg10 mi
9:53 PM78 °FClear.8 mph66%30.09 "Hg10 mi
8:53 PM79 °FPassing clouds.7 mph62%30.09 "Hg10 mi
7:53 PM80 °FSunny.7 mph60%30.10 "Hg10 mi
6:53 PM83 °FSunny.9 mph53%30.09 "Hg10 mi
5:53 PM85 °FPartly sunny.9 mph50%30.10 "Hg10 mi
4:53 PM85 °FPassing clouds.5 mph50%30.13 "Hg10 mi
3:53 PM85 °FScattered clouds.3 mph51%30.14 "Hg10 mi
2:53 PM83 °FScattered clouds.8 mph53%30.17 "Hg10 mi
1:53 PM84 °FScattered clouds.5 mph49%30.19 "Hg10 mi
Weather by CustomWeather, © 2015

See weather overviewHow to use our weather pages